DW5657 Weather Reports


Display with metric or nautical units.
time (UTC)temp
F
wind
direction
speed
MPH
gust
MPH
rain 1hr
in
rain 24hr
in
rain mn
in
humidity
%
barometer
mb
20260903234703 92 337 0.0 0.0 0.00 0.00 0.00 58 1013.2
20260903234203 92 233 0.0 0.0 0.00 0.00 0.00 58 1013.1
20260903233704 92 217 0.0 0.0 0.00 0.00 0.00 58 1013.1
20260903233203 92 195 0.0 0.0 0.00 0.00 0.00 58 1013.0
20260903231704 93 223 0.0 0.0 0.00 0.00 0.00 57 1012.9
20260903231203 93 223 0.0 0.0 0.00 0.00 0.00 57 1012.9
20260903225704 93 221 0.0 1.0 0.00 0.00 0.00 55 1012.9
20260903225203 94 232 0.0 3.0 0.00 0.00 0.00 56 1013.0
20260903224703 94 226 1.0 3.0 0.00 0.00 0.00 55 1013.0
20260903224205 94 291 0.0 6.0 0.00 0.00 0.00 55 1012.9
20260903223204 94 236 0.0 3.0 0.00 0.00 0.00 54 1012.8
20260903222703 94 227 2.0 5.0 0.00 0.00 0.00 53 1012.8
20260903222203 94 227 2.0 5.0 0.00 0.00 0.00 53 1012.8
20260903221703 95 225 1.0 3.0 0.00 0.00 0.00 53 1012.7
20260903221204 95 208 1.0 3.0 0.00 0.00 0.00 52 1012.6
20260903220704 96 214 2.0 6.0 0.00 0.00 0.00 51 1012.6
20260903220204 96 212 3.0 6.0 0.00 0.00 0.00 51 1012.4
20260903215703 96 211 2.0 7.0 0.00 0.00 0.00 51 1012.4
20260903215204 96 221 3.0 8.0 0.00 0.00 0.00 50 1012.3
20260903214704 96 270 3.0 7.0 0.00 0.00 0.00 50 1012.3
20260903214204 96 228 5.0 9.0 0.00 0.00 0.00 50 1012.2
20260903213204 96 225 3.0 8.0 0.00 0.00 0.00 50 1012.2
20260903212703 96 291 3.0 6.0 0.00 0.00 0.00 50 1012.3
20260903212204 96 263 1.0 3.0 0.00 0.00 0.00 51 1012.4
20260903211704 96 253 2.0 6.0 0.00 0.00 0.00 51 1012.4
20260903211203 95 233 3.0 6.0 0.00 0.00 0.00 51 1012.4
20260903210704 95 233 2.0 7.0 0.00 0.00 0.00 51 1012.4
20260903210204 95 275 2.0 7.0 0.00 0.00 0.00 51 1012.4
20260903205704 95 279 3.0 6.0 0.00 0.00 0.00 51 1012.4
20260903205203 96 222 4.0 6.0 0.00 0.00 0.00 51 1012.4
20260903204703 96 204 2.0 6.0 0.00 0.00 0.00 51 1012.5
20260903204203 96 232 4.0 8.0 0.00 0.00 0.00 50 1012.7
20260903203704 96 229 3.0 9.0 0.00 0.00 0.00 50 1012.7
20260903203203 95 235 2.0 7.0 0.00 0.00 0.00 51 1012.7
20260903202203 95 251 4.0 10.0 0.00 0.00 0.00 50 1013.0
20260903201704 95 223 2.0 10.0 0.00 0.00 0.00 52 1012.9
20260903201204 95 221 3.0 8.0 0.00 0.00 0.00 50 1013.0
20260903200704 95 275 0.0 2.0 0.00 0.00 0.00 51 1013.1
20260903200204 95 203 5.0 10.0 0.00 0.00 0.00 49 1013.3
20260903195703 95 230 4.0 10.0 0.00 0.00 0.00 51 1013.4
20260903195203 95 205 5.0 12.0 0.00 0.00 0.00 50 1013.4
20260903194703 95 226 5.0 9.0 0.00 0.00 0.00 50 1013.4
20260903194204 95 231 6.0 9.0 0.00 0.00 0.00 51 1013.5
20260903193703 95 210 6.0 13.0 0.00 0.00 0.00 49 1013.6
20260903193203 95 225 2.0 7.0 0.00 0.00 0.00 52 1013.6
20260903192703 95 259 2.0 7.0 0.00 0.00 0.00 51 1013.6
20260903191704 95 217 2.0 7.0 0.00 0.00 0.00 51 1013.8
20260903191203 95 231 3.0 7.0 0.00 0.00 0.00 51 1013.8
20260903190205 95 230 3.0 8.0 0.00 0.00 0.00 51 1013.9
20260903185703 95 226 7.0 13.0 0.00 0.00 0.00 50 1013.9
20260903185203 95 194 2.0 8.0 0.00 0.00 0.00 49 1013.9
20260903184703 95 252 2.0 9.0 0.00 0.00 0.00 52 1014.0
20260903183205 95 200 4.0 10.0 0.00 0.00 0.00 51 1014.1
20260903182704 95 208 3.0 12.0 0.00 0.00 0.00 51 1014.1
20260903182203 95 229 1.0 6.0 0.00 0.00 0.00 53 1014.1
20260903181704 95 231 3.0 7.0 0.00 0.00 0.00 52 1014.1
20260903181203 95 231 1.0 6.0 0.00 0.00 0.00 55 1014.1
20260903180703 95 263 2.0 7.0 0.00 0.00 0.00 52 1014.2
20260903180204 95 208 1.0 3.0 0.00 0.00 0.00 53 1014.2
20260903175204 95 201 2.0 7.0 0.00 0.00 0.00 53 1014.2
20260903174703 95 153 3.0 7.0 0.00 0.00 0.00 53 1014.4
20260903174204 95 280 0.0 6.0 0.00 0.00 0.00 52 1014.4
20260903173703 94 318 2.0 5.0 0.00 0.00 0.00 56 1014.4
20260903173204 94 293 2.0 6.0 0.00 0.00 0.00 54 1014.4
20260903172204 94 219 3.0 7.0 0.00 0.00 0.00 53 1014.6
20260903171703 94 209 2.0 8.0 0.00 0.00 0.00 53 1014.6
20260903171204 94 219 3.0 8.0 0.00 0.00 0.00 54 1014.6
20260903170703 94 238 5.0 8.0 0.00 0.00 0.00 52 1014.7
20260903170203 94 210 5.0 10.0 0.00 0.00 0.00 51 1014.7
20260903165704 94 290 3.0 7.0 0.00 0.00 0.00 52 1014.8
20260903165203 94 338 1.0 6.0 0.00 0.00 0.00 53 1014.8
20260903164704 93 275 3.0 7.0 0.00 0.00 0.00 54 1014.9
20260903164203 93 211 3.0 7.0 0.00 0.00 0.00 55 1015.0
20260903163704 93 252 1.0 6.0 0.00 0.00 0.00 55 1015.0
20260903163204 93 267 3.0 8.0 0.00 0.00 0.00 55 1015.1
20260903162703 93 244 2.0 5.0 0.00 0.00 0.00 55 1015.1
20260903162204 93 229 4.0 8.0 0.00 0.00 0.00 55 1015.1
20260903161703 93 223 5.0 9.0 0.00 0.00 0.00 54 1015.1
20260903161203 93 232 4.0 8.0 0.00 0.00 0.00 54 1015.3
20260903160703 93 211 3.0 9.0 0.00 0.00 0.00 55 1015.2
20260903160203 92 220 2.0 6.0 0.00 0.00 0.00 55 1015.2
20260903155203 92 283 1.0 5.0 0.00 0.00 0.00 58 1015.3
20260903154704 92 287 1.0 5.0 0.00 0.00 0.00 59 1015.3
20260903154203 92 242 1.0 3.0 0.00 0.00 0.00 59 1015.3
20260903153705 92 272 2.0 7.0 0.00 0.00 0.00 60 1015.3
20260903153203 91 252 1.0 6.0 0.00 0.00 0.00 60 1015.3
20260903152704 91 282 1.0 3.0 0.00 0.00 0.00 60 1015.3
20260903152204 91 229 1.0 3.0 0.00 0.00 0.00 61 1015.3
20260903151704 90 261 1.0 5.0 0.00 0.00 0.00 60 1015.3
20260903151205 90 267 2.0 7.0 0.00 0.00 0.00 62 1015.2
20260903150205 90 230 0.0 3.0 0.00 0.00 0.00 63 1015.2
20260903145703 89 255 3.0 5.0 0.00 0.00 0.00 64 1015.2
20260903145203 89 275 1.0 3.0 0.00 0.00 0.00 64 1015.2
20260903144704 89 219 1.0 5.0 0.00 0.00 0.00 64 1015.1
20260903143705 88 219 1.0 5.0 0.00 0.00 0.00 68 1015.2
20260903143205 87 276 1.0 3.0 0.00 0.00 0.00 67 1015.2
20260903142704 87 217 3.0 6.0 0.00 0.00 0.00 69 1015.2
20260903142204 87 221 2.0 6.0 0.00 0.00 0.00 69 1015.1
20260903141704 86 273 1.0 6.0 0.00 0.00 0.00 70 1015.2
20260903141204 86 226 3.0 6.0 0.00 0.00 0.00 71 1015.2
20260903140703 86 239 2.0 3.0 0.00 0.00 0.00 71 1015.2
20260903135705 85 228 0.0 5.0 0.00 0.00 0.00 73 1015.3
20260903135204 85 216 1.0 5.0 0.00 0.00 0.00 72 1015.3
20260903134704 84 230 2.0 6.0 0.00 0.00 0.00 73 1015.3
20260903134204 84 221 2.0 5.0 0.00 0.00 0.00 73 1015.4
20260903133704 84 204 2.0 5.0 0.00 0.00 0.00 74 1015.4
20260903133204 84 221 0.0 3.0 0.00 0.00 0.00 74 1015.5
20260903132703 83 228 2.0 5.0 0.00 0.00 0.00 74 1015.6
20260903132204 83 235 1.0 5.0 0.00 0.00 0.00 75 1015.6
20260903131703 83 223 1.0 3.0 0.00 0.00 0.00 75 1015.6
20260903131205 82 214 2.0 5.0 0.00 0.00 0.00 76 1015.7
20260903130704 82 227 2.0 7.0 0.00 0.00 0.00 76 1015.7
20260903130203 82 224 1.0 3.0 0.00 0.00 0.00 76 1015.6
20260903125205 81 239 1.0 3.0 0.00 0.00 0.00 77 1015.7
20260903124703 81 225 1.0 3.0 0.00 0.00 0.00 78 1015.7
20260903123704 80 219 1.0 3.0 0.00 0.00 0.00 79 1015.7
20260903123203 80 162 0.0 2.0 0.00 0.00 0.00 79 1015.8
20260903122704 80 128 0.0 2.0 0.00 0.00 0.00 80 1015.8
20260903121703 79 63 1.0 3.0 0.00 0.00 0.00 80 1015.8
20260903121203 79 61 0.0 0.0 0.00 0.00 0.00 81 1015.8
20260903120704 78 53 0.0 2.0 0.00 0.00 0.00 81 1015.7
20260903120203 78 48 0.0 2.0 0.00 0.00 0.00 82 1015.7
20260903115704 78 43 0.0 0.0 0.00 0.00 0.00 82 1015.7
20260903114204 78 46 0.0 0.0 0.00 0.00 0.00 81 1015.7
20260903113705 78 52 0.0 0.0 0.00 0.00 0.00 81 1015.6
20260903112204 78 50 0.0 0.0 0.00 0.00 0.00 81 1015.5
20260903111704 78 49 0.0 0.0 0.00 0.00 0.00 81 1015.4
20260903111204 78 51 0.0 0.0 0.00 0.00 0.00 81 1015.4
20260903110704 78 53 0.0 0.0 0.00 0.00 0.00 81 1015.3
20260903110203 78 51 0.0 0.0 0.00 0.00 0.00 80 1015.2
20260903105704 79 49 0.0 0.0 0.00 0.00 0.00 80 1015.2
20260903105205 79 48 0.0 0.0 0.00 0.00 0.00 80 1015.1
20260903104703 79 48 0.0 0.0 0.00 0.00 0.00 80 1015.1
20260903104204 79 48 0.0 0.0 0.00 0.00 0.00 80 1015.0
20260903103704 79 48 0.0 1.0 0.00 0.00 0.00 80 1015.0
20260903103204 79 49 0.0 0.0 0.00 0.00 0.00 80 1015.0
20260903102704 79 49 0.0 0.0 0.00 0.00 0.00 80 1015.0
20260903101703 79 49 0.0 2.0 0.00 0.00 0.00 80 1015.0
20260903101204 79 49 0.0 0.0 0.00 0.00 0.00 80 1015.0
20260903100704 79 48 0.0 0.0 0.00 0.00 0.00 80 1014.9
20260903100203 79 49 0.0 1.0 0.00 0.00 0.00 80 1014.9
20260903095705 78 50 0.0 0.0 0.00 0.00 0.00 80 1014.9
20260903095203 78 50 0.0 0.0 0.00 0.00 0.00 81 1014.8
20260903094703 78 51 0.0 0.0 0.00 0.00 0.00 81 1014.8
20260903092205 79 49 0.0 0.0 0.00 0.00 0.00 81 1014.8
20260903091704 79 49 0.0 0.0 0.00 0.00 0.00 80 1014.8
20260903090704 79 49 0.0 0.0 0.00 0.00 0.00 80 1014.8
20260903090204 79 48 0.0 0.0 0.00 0.00 0.00 80 1014.8
20260903085704 79 49 0.0 0.0 0.00 0.00 0.00 80 1014.8
20260903085204 79 49 0.0 0.0 0.00 0.00 0.00 80 1014.9
20260903084704 79 49 0.0 0.0 0.00 0.00 0.00 80 1014.8
20260903084204 79 50 0.0 0.0 0.00 0.00 0.00 80 1014.8
20260903083704 79 51 0.0 0.0 0.00 0.00 0.00 80 1014.7
20260903083203 79 50 0.0 0.0 0.00 0.00 0.00 79 1014.7
20260903082204 79 49 0.0 0.0 0.00 0.00 0.00 79 1014.7
20260903081703 80 48 0.0 0.0 0.00 0.00 0.00 78 1014.7
20260903081204 80 49 0.0 0.0 0.00 0.00 0.00 79 1014.6
20260903080703 80 49 0.0 0.0 0.00 0.00 0.00 78 1014.7
20260903075704 80 51 0.0 0.0 0.00 0.00 0.00 78 1014.7
20260903074704 80 62 0.0 0.0 0.00 0.00 0.00 78 1014.7
20260903074204 80 59 0.0 0.0 0.00 0.00 0.00 78 1014.6
20260903073203 80 61 0.0 0.0 0.00 0.00 0.00 78 1014.6
20260903072203 80 63 0.0 0.0 0.00 0.00 0.00 78 1014.5
20260903071203 80 55 0.0 0.0 0.00 0.00 0.00 77 1014.5
20260903070704 80 60 0.0 0.0 0.00 0.00 0.00 77 1014.5
20260903070204 80 54 0.0 0.0 0.00 0.00 0.00 77 1014.5
20260903065204 81 60 0.0 0.0 0.00 0.00 0.00 77 1014.6
20260903064704 81 52 0.0 0.0 0.00 0.00 0.00 77 1014.6
20260903063704 81 43 0.0 0.0 0.00 0.00 0.00 77 1014.5
20260903063204 81 13 0.0 0.0 0.00 0.00 0.00 76 1014.6
20260903062703 81 22 0.0 0.0 0.00 0.00 0.00 76 1014.6
20260903062204 81 17 0.0 0.0 0.00 0.00 0.00 76 1014.6
20260903061704 81 0 0.0 0.0 0.00 0.00 0.00 76 1014.6
20260903061204 81 8 0.0 0.0 0.00 0.00 0.00 76 1014.5
20260903060704 81 13 0.0 0.0 0.00 0.00 0.00 76 1014.5
20260903060204 81 2 0.0 0.0 0.00 0.00 0.00 76 1014.5
20260903055704 81 0 0.0 0.0 0.00 0.00 0.00 76 1014.5
20260903055204 81 4 0.0 0.0 0.00 0.00 0.00 76 1014.5
20260903054204 81 12 0.0 0.0 0.00 0.00 0.00 75 1014.5
20260903053704 82 44 0.0 0.0 0.00 0.00 0.00 75 1014.5
20260903052704 82 49 0.0 0.0 0.00 0.00 0.00 75 1014.4
20260903052205 82 45 0.0 0.0 0.00 0.00 0.00 75 1014.4
20260903051205 82 54 0.0 0.0 0.00 0.00 0.00 74 1014.4
20260903050704 82 49 0.0 0.0 0.00 0.00 0.00 74 1014.4
20260903050204 82 50 0.0 0.0 0.00 0.00 0.00 74 1014.4
20260903045704 82 49 0.0 0.0 0.00 0.00 0.00 74 1014.4
20260903045204 82 46 0.0 0.0 0.00 0.00 0.00 74 1014.3
20260903044704 82 46 0.0 0.0 0.00 0.00 0.00 73 1014.3
20260903043704 83 44 0.0 0.0 0.00 0.00 0.00 73 1014.3
20260903043204 83 43 0.0 0.0 0.00 0.00 0.00 73 1014.2
20260903042704 83 42 0.0 0.0 0.00 0.00 0.00 72 1014.3
20260903042203 83 41 0.0 0.0 0.00 0.00 0.00 72 1014.3
20260903041204 83 40 0.0 0.0 0.00 0.00 0.00 72 1014.3
20260903040704 83 40 0.0 0.0 0.00 0.00 0.00 71 1014.3
20260903040204 83 36 0.0 0.0 0.00 0.00 0.00 71 1014.3
20260903035205 83 33 0.0 0.0 0.00 0.00 0.00 71 1014.3
20260903034705 83 38 0.0 0.0 0.00 0.00 0.00 71 1014.3
20260903034205 83 38 0.0 0.0 0.00 0.00 0.00 72 1014.3
20260903033704 83 39 0.0 0.0 0.00 0.00 0.00 72 1014.4
20260903033203 83 39 0.0 0.0 0.00 0.00 0.00 71 1014.4
20260903032705 83 39 0.0 0.0 0.00 0.00 0.00 71 1014.3
20260903032204 83 38 0.0 0.0 0.00 0.00 0.00 71 1014.3
20260903031704 83 38 0.0 0.0 0.00 0.00 0.00 71 1014.4
20260903031204 83 37 0.0 0.0 0.00 0.00 0.00 71 1014.4
20260903030703 83 36 0.0 0.0 0.00 0.00 0.00 71 1014.4
20260903025204 84 34 0.0 0.0 0.00 0.00 0.00 70 1014.6
20260903024703 84 36 0.0 0.0 0.00 0.00 0.00 70 1014.6
20260903024204 84 40 0.0 0.0 0.00 0.00 0.00 70 1014.7
20260903023704 84 40 0.0 0.0 0.00 0.00 0.00 70 1014.7
20260903022704 84 39 0.0 0.0 0.00 0.00 0.00 69 1014.7
20260903022204 85 38 0.0 0.0 0.00 0.00 0.00 69 1014.7
20260903021704 85 38 0.0 0.0 0.00 0.00 0.00 69 1014.7
20260903021204 85 39 0.0 0.0 0.00 0.00 0.00 69 1014.7
20260903020705 85 40 0.0 0.0 0.00 0.00 0.00 68 1014.7
20260903020205 85 40 0.0 0.0 0.00 0.00 0.00 68 1014.7
20260903015704 85 40 0.0 0.0 0.00 0.00 0.00 68 1014.7
20260903015204 86 41 0.0 0.0 0.00 0.00 0.00 67 1014.7
20260903014705 86 41 0.0 0.0 0.00 0.00 0.00 67 1014.7
20260903014204 86 41 0.0 0.0 0.00 0.00 0.00 67 1014.6
20260903013704 86 44 0.0 0.0 0.00 0.00 0.00 67 1014.6
20260903013204 87 46 0.0 0.0 0.00 0.00 0.00 66 1014.6
20260903012704 87 45 0.0 0.0 0.00 0.00 0.00 66 1014.5
20260903012204 87 45 0.0 0.0 0.00 0.00 0.00 66 1014.5
20260903011705 87 47 0.0 0.0 0.00 0.00 0.00 65 1014.4
20260903011204 88 51 0.0 0.0 0.00 0.00 0.00 65 1014.3
20260903010705 88 51 0.0 0.0 0.00 0.00 0.00 65 1014.3
20260903010204 88 52 0.0 0.0 0.00 0.00 0.00 64 1014.3
20260903005704 88 218 0.0 0.0 0.00 0.00 0.00 63 1014.3
20260903005204 89 65 0.0 0.0 0.00 0.00 0.00 63 1014.2
20260903004705 89 87 0.0 0.0 0.00 0.00 0.00 63 1014.2
20260903003704 89 131 0.0 3.0 0.00 0.00 0.00 62 1014.1
20260903003204 90 122 0.0 3.0 0.00 0.00 0.00 62 1014.1
20260903002704 90 110 0.0 0.0 0.00 0.00 0.00 61 1014.1
20260903002204 90 133 0.0 2.0 0.00 0.00 0.00 61 1014.0
20260903001704 90 216 1.0 2.0 0.00 0.00 0.00 61 1014.0
20260903001205 90 207 0.0 0.0 0.00 0.00 0.00 60 1014.0
20260903000705 91 215 0.0 1.0 0.00 0.00 0.00 60 1014.0
20260903000204 91 212 0.0 2.0 0.00 0.00 0.00 59 1014.0
20260902235703 91 228 1.0 3.0 0.00 0.00 0.00 59 1014.0